Showing default

TJS-22, 66990

Orbit data source: Space-Track

TJS-22, 66990 is a Chinese payload satellite in GEO that was launched on Tue, 09 Dec 2025 UTC via a CHANG ZHENG 3B launch vehicle from the Xichang Space Center, China (XSC). Payload-class satellites include a variety of spacecraft equipped with specific instruments for various scientific and technological missions. These include communications satellites like Starlink; space stations such as the ISS; scientific satellites like the Hubble; Earth observation satellites from companies like Planet Labs, Umbra, and HawkEye 360; GPS; miniature CubeSats for education and research; and military/defense satellites.

Not visible in the next 10 days
Identifier
66990, 2025-290A
Orbit
GEO
Country
Flag of CNCN / PRC
Related business
Manufacturer
SAST
Mission
Operational Defense Sigint
Bus & Motor
TJSXX, Unknown motor
Mass
~5,000 kg wet, ~6,000 kg dry
Launch date (UTC)
2025-12-09 (6 months ago)
Launch vehicle
CHANG ZHENG 3B
Launch site
Xichang Space Center, China (XSC)
Object type
Payload
Rocket body
Debris
Shape & HBR
Box + 2 Pan + 1 Dish, 22.5 m
Radar Cross Section
55.841 m²

Expand to show TLE details & history
Last TLE update: 1 day ago

TLE from 1 day ago
0 TJS-22
1 66990U 25290A   26144.93685567 -.00000012  00000-0  00000-0 0  9998
2 66990   1.5854 286.2889 0001873 348.9360  11.1231  1.00274659  1790
Epoch: 2026-05-24T22:29Z
TLE epoch observation values (Epoch: 2026-05-24T22:29:04.329Z)
Latitude
-0°
Longitude
66.55242°
Altitude
35,777.529 km
Speed
3.075 km/s
True Right ascension
19h 05m 24s
True Declination
0° 00' 00"
Sunlit
Object was in daylight at epoch
Visualization orbit readout
Latitude
Unknown
Longitude
Unknown
Altitude
Unknown
Speed
Unknown
Apparent Right ascension
Unknown
Apparent Declination
Unknown
Sunlit
N/A
Visualization observer readout
Local Sidereal Time
19:09:00
Azimuth
Unknown
Elevation
Unknown
Doppler factor
Unknown
Orbital elements
Apogee altitude
35,794.756 km
Perigee altitude
35,778.961 km
Semi-major axis
42,164.995 km
Eccentricity
0.00019
Inclination
1.5854°
RAAN
286.2889°
Arg. of periapsis
348.936°
True anomaly
11.12724°
Mean anomaly
11.1231°
Eccentric anomaly
11.12517°
Mean motion
0.25068 °/min
Orbital period
1,436.11 mins
BSTAR
0
Loading maneuver chart data...
Computing Atmospheric mass density...
Loading historical data...
Loading historical data...
Loading historical data...
Loading historical data...
Loading historical data...
Loading historical data...
Loading historical data...
Other satellites on launch #290 in the year 2025 (2025-12-09 UTC)

Documentation

Showing up to 5 results
|